Muscle Shoals, AL (35661)

4:15 AM CST on February 11, 2016 (GMT -0600)
Jackson Heights | | Change Station
CLOSE
Current Station
Personal Weather Station
Location: Muscle Shoals, AL
Elevation: 525 ft
Nearby Weather Stations

Elev 525 ft 34.75 °N, 87.64 °W | Updated 10 seconds ago

Clear
Clear
27.1 °F
Feels Like 27 °F
N
0.2
Wind Variable Wind from East
Gusts 2.5 mph

Today
High -- | Low -- °F
--% Chance of Precip.
Yesterday
High -- | Low -- °F
Precip. -- in
Pressure 30.15 in
Visibility 10.0 miles
Clouds Clear
Windchill 27 °F
Dew Point 16 °F
Humidity 63%
Rainfall 0.00 in
Snow Depth Not available.
6:40 AM 5:29 PM
Waxing Crescent, 11% visible
METAR KMSL 110953Z AUTO 10004KT 10SM CLR M03/M08 A3013 RMK AO2 SLP208 T10331078
Pressure 30.15 in
Visibility 10.0 miles
Clouds Clear
Windchill 27 °F
Dew Point 16 °F
Humidity 63%
Rainfall 0.00 in
Snow Depth Not available.
6:40 AM 5:29 PM
Waxing Crescent, 11% visible
METAR KMSL 110953Z AUTO 10004KT 10SM CLR M03/M08 A3013 RMK AO2 SLP208 T10331078

10-Day Weather Forecast

Almanac

Astronomy

Feb. 11, 2016 Rise Set
Actual Time
Civil Twilight
Nautical Twilight
Astronomical Twilight
Moon
Length of Visible Light
Length of Day
Tomorrow will be .
, % of the Moon is Illuminated

Today's Extremes

State Highs State Lows

Community

WunderPhotos

Upload Photos

1,892,030 photos uploaded!

WunderBlog® & News

Nearby

Air Quality

  Air Quality AQ Index Pollutant
Not available.

Snow Depth

Station Depth Elevation

Earthquake Activity

City Distance Mag. Time & Date
Minimum magnitude displayed is 2.5.

Coastal Water Temperatures

Place Temperature

Stations

Nearby Weather Stations

Station Location Temp. Windchill Dew Point Humidity Wind Precip. Elev Updated Type
                   

Watches & Warnings

There are currently no watches in effect.